sat.trackr.live / text

‹ back to catalog

STARLINK-36054

NORAD 66812 · 2025-278X

PAYLOAD ACTIVE UNKNOWN

§ Identity

Operator
Country
US
Launch date
2025-12-01
Launch site
AFETR
Launch vehicle
Mass (kg)
RCS (m²)

Purposes: comms

External: N2YO · Heavens-Above · Gunter

§ Orbital elements

Epoch: 2026-05-25T02:12:58.787712Z

Period
94.27 min
Inclination
43.0033°
Eccentricity
0.0001399
Mean motion
15.27595364 rev/d
Perigee alt
482.0 km
Apogee alt
484.0 km
Semi-major
6,861.1 km
B*
5.1477e-4
RAAN
42.9025°
Arg perigee
268.1696°
Mean anomaly
91.8996°
Rev number
2,689

§ Raw data

STARLINK-360541 66812U 25278X   26145.09234708  .00013937  00000+0  51477-3 0  99972 66812  43.0033  42.9025 0001399 268.1696  91.8996 15.27595364 26894

JSON: /api/v1/satellites/66812 · /tle

For live sub-satellite position, see the globe view (requires WebGL).

§ Visibility from observer

Set your observer location to see the next 7 days of passes ≥ 10°. The values pass through the URL so the page stays shareable.

No JS? Fill the form by hand. The geolocation button needs JavaScript.